Flag for Japan Weather past 2 weeks in Sapporo, Japan

Now
80 °F

Warm.


Feels Like: 83 °F
Forecast: 71 / 87 °F
Wind: 6 mph from Southeast

Location: Sapporo

Current Time: Aug 4, 2015 at 8:46:50 PM

Latest Report: Aug 4, 2015 at 8:00 PM


Visibility: N/A

Pressure: 29.71 "Hg

Humidity: 72%

Dew point: 70 °F

Location of SapporoLocation

Historic Weather in Sapporo — Graph

°F

Sapporo temperature yesterday

Maximum temperature yesterday: 81 °F (at 4:00 PM)
Minimum temperature yesterday: 68 °F (at 3:00 AM)
Average temperature yesterday: 75 °F

Past Weeks' High & Low Weather Summary

 TemperatureHumidityPressure
High89 °F (Aug 4, 3:00 PM)95% (Jul 24, 2:00 AM)29.95 "Hg (Jul 24, 2:00 AM)
Low67 °F (Aug 2, 5:00 AM)50% (Aug 2, 3:00 PM)29.65 "Hg (Jul 31, 5:00 PM)
Average76 °F79%29.76 "Hg
* Reported Jul 20 7:00 PM — Aug 4 7:00 PM, Sapporo, Weather by CustomWeather, © 2015

Note: Actual official high and low records may vary slightly from our data, if they occured in-between our weather recording intervals... More about our weather records

Advertising

Sapporo weather history for previous 24 hours

 ConditionsComfort  
Time TempWeatherWind HumidityBarometerVisibility
7:00 PM
Tue, Aug 4
81 °FWarm.9 mph71%29.70 "HgN/A
6:00 PM83 °FPassing clouds.8 mph67%29.70 "Hg6 mi
5:00 PM85 °FWarm.7 mph60%29.70 "HgN/A
4:00 PM87 °FWarm.9 mph53%29.70 "HgN/A
3:00 PM89 °FOvercast.7 mph53%29.70 "Hg12 mi
2:00 PM88 °FWarm.10 mph53%29.72 "HgN/A
1:00 PM87 °FWarm.7 mph56%29.72 "HgN/A
12:00 PM85 °FPartly sunny.9 mph65%29.72 "Hg12 mi
11:00 AM87 °FWarm.9 mph58%29.73 "HgN/A
10:00 AM82 °FWarm.9 mph70%29.75 "HgN/A
9:00 AM79 °FOvercast.12 mph74%29.76 "Hg9 mi
8:00 AM78 °FWarm.7 mph76%29.77 "HgN/A
7:00 AM77 °FWarm.7 mph78%29.78 "HgN/A
5:00 AM72 °FMild.8 mph85%29.78 "HgN/A
4:00 AM73 °FMild.8 mph85%29.78 "HgN/A
3:00 AM74 °FPassing clouds.8 mph83%29.78 "Hg5 mi
2:00 AM74 °FMild.5 mph82%29.80 "HgN/A
1:00 AM75 °FMild.5 mph81%29.80 "HgN/A
12:00 AM75 °FMild.6 mph81%29.81 "HgN/A
11:00 PM
Mon, Aug 3
74 °FMild.5 mph81%29.82 "HgN/A
10:00 PM75 °FMild.3 mph80%29.82 "HgN/A
9:00 PM75 °FPassing clouds.3 mph80%29.81 "Hg6 mi
8:00 PM75 °FMild.3 mph80%29.81 "HgN/A
Weather by CustomWeather, © 2015

See weather overviewHow to use our weather pages